2023/01/28 00:00:00,60.2,-4.1
2023/01/28 00:10:00,60.2,-4.8
2023/01/28 00:20:00,60.2,-4.8
2023/01/28 00:30:00,60.2,-5.4
2023/01/28 00:40:00,59.9,-5.4
2023/01/28 00:50:00,59.7,-5.2
2023/01/28 01:00:00,59.5,-5.0
2023/01/28 01:10:00,59.5,-4.7
2023/01/28 01:20:00,59.5,-4.5
2023/01/28 01:30:00,59.3,-4.3
2023/01/28 01:40:00,59.1,-4.5
2023/01/28 01:50:00,59.0,-4.6
2023/01/28 02:00:00,58.9,-4.9
2023/01/28 02:10:00,58.8,-5.2
2023/01/28 02:20:00,58.8,-5.3
2023/01/28 02:30:00,58.7,-5.7
2023/01/28 02:40:00,58.7,-5.3
2023/01/28 02:50:00,58.6,-5.2
2023/01/28 03:00:00,58.4,-5.1
2023/01/28 03:10:00,58.4,-5.0
2023/01/28 03:20:00,58.4,-4.7
2023/01/28 03:30:00,58.2,-4.5
2023/01/28 03:40:00,57.9,-4.7
2023/01/28 03:50:00,57.7,-4.7
2023/01/28 04:00:00,57.6,-5.1
2023/01/28 04:10:00,57.5,-5.1
2023/01/28 04:20:00,57.4,-5.0
2023/01/28 04:30:00,57.3,-5.1
2023/01/28 04:40:00,57.4,-4.7
2023/01/28 04:50:00,57.4,-4.5
2023/01/28 05:00:00,57.5,-4.6
2023/01/28 05:10:00,58.1,-4.3
2023/01/28 05:20:00,58.2,-3.9
2023/01/28 05:30:00,58.3,-4.3
2023/01/28 05:40:00,58.3,-4.1
2023/01/28 05:50:00,58.4,-3.8
2023/01/28 06:00:00,58.6,-3.9
2023/01/28 06:10:00,58.7,-3.8
2023/01/28 06:20:00,58.6,-3.6
2023/01/28 06:30:00,59.4,-3.5
2023/01/28 06:40:00,60.0,-3.4
2023/01/28 06:50:00,60.4,-3.6
2023/01/28 07:00:00,61.0,-3.4
2023/01/28 07:10:00,61.6,-3.1
2023/01/28 07:20:00,61.8,-3.2
2023/01/28 07:30:00,61.6,-3.4
2023/01/28 07:40:00,61.4,-3.1
2023/01/28 07:50:00,61.4,-3.4
2023/01/28 08:00:00,61.4,-3.0
2023/01/28 08:10:00,61.5,-3.2
2023/01/28 08:20:00,61.4,-2.8
2023/01/28 08:30:00,61.4,-2.5
2023/01/28 08:40:00,61.4,-3.0
2023/01/28 08:50:00,61.3,-1.7
2023/01/28 09:00:00,61.2,-2.1
2023/01/28 09:10:00,61.4,-1.7
2023/01/28 09:20:00,62.1,-1.2
2023/01/28 09:30:00,62.5,-0.5
2023/01/28 09:40:00,62.4,-0.3
2023/01/28 09:50:00,62.3, 0.0
2023/01/28 10:00:00,62.2, 1.3
2023/01/28 10:10:00,62.2, 0.1
2023/01/28 10:20:00,62.1, 1.6
2023/01/28 10:30:00,61.9,-0.3
2023/01/28 10:40:00,61.9, 0.2
2023/01/28 10:50:00,62.1, 1.0
2023/01/28 11:00:00,60.5, 1.9
2023/01/28 11:10:00,58.8, 1.3
2023/01/28 11:20:00,58.6, 1.4
2023/01/28 11:30:00,58.6, 1.1
2023/01/28 11:40:00,58.7, 0.6
2023/01/28 11:50:00,59.5, 0.1
2023/01/28 12:00:00,60.2,-0.4
2023/01/28 12:10:00,61.0,-0.4
2023/01/28 12:20:00,61.7,-0.4
2023/01/28 12:30:00,62.1,-0.1
2023/01/28 12:40:00,62.9, 0.4
2023/01/28 12:50:00,63.0, 1.3
2023/01/28 13:00:00,63.2, 0.5
2023/01/28 13:10:00,63.1, 1.2
2023/01/28 13:20:00,62.5, 1.4
2023/01/28 13:30:00,62.4, 3.4
2023/01/28 13:40:00,62.4, 0.5
2023/01/28 13:50:00,62.3, 2.4
2023/01/28 14:00:00,61.9, 0.8
2023/01/28 14:10:00,61.5, 1.9
2023/01/28 14:20:00,62.0, 1.1
2023/01/28 14:30:00,61.8, 2.0
2023/01/28 14:40:00,61.6, 1.2
2023/01/28 14:50:00,61.4, 1.1
2023/01/28 15:00:00,61.1,-0.3
2023/01/28 15:10:00,60.9,-0.2
2023/01/28 15:20:00,60.7,-1.2
2023/01/28 15:30:00,60.8,-1.5
2023/01/28 15:40:00,60.9,-1.8
2023/01/28 15:50:00,61.2,-1.9
2023/01/28 16:00:00,61.5,-1.8
2023/01/28 16:10:00,61.9,-2.0
2023/01/28 16:20:00,62.4,-2.2
2023/01/28 16:30:00,62.8,-2.4
2023/01/28 16:40:00,62.8,-2.5
2023/01/28 16:50:00,62.6,-2.3
2023/01/28 17:00:00,62.6,-2.4
2023/01/28 17:10:00,62.5,-2.7
2023/01/28 17:20:00,62.4,-3.1
2023/01/28 17:30:00,62.4,-2.8
2023/01/28 17:40:00,62.8,-3.2
2023/01/28 17:50:00,63.1,-3.3
2023/01/28 18:00:00,62.9,-3.3
2023/01/28 18:10:00,62.7,-3.6
2023/01/28 18:20:00,62.7,-3.5
2023/01/28 18:30:00,63.3,-3.5
2023/01/28 18:40:00,63.5,-3.5
2023/01/28 18:50:00,63.6,-3.1
2023/01/28 19:00:00,64.3,-3.8
2023/01/28 19:10:00,64.3,-3.3
2023/01/28 19:20:00,64.2,-3.4
2023/01/28 19:30:00,64.0,-3.3
2023/01/28 19:40:00,64.2,-3.9
2023/01/28 19:50:00,64.9,-3.4
2023/01/28 20:00:00,65.3,-3.2
2023/01/28 20:10:00,65.4,-4.2
2023/01/28 20:20:00,65.3,-4.6
2023/01/28 20:30:00,65.2,-4.4
2023/01/28 20:40:00,65.1,-4.6
2023/01/28 20:50:00,64.8,-4.7
2023/01/28 21:00:00,64.5,-4.4
2023/01/28 21:10:00,64.8,-4.5
2023/01/28 21:20:00,64.9,-4.7
2023/01/28 21:30:00,64.7,-4.5
2023/01/28 21:40:00,64.8,-4.7
2023/01/28 21:50:00,64.6,-4.6
2023/01/28 22:00:00,64.4,-4.0
2023/01/28 22:10:00,64.3,-3.9
2023/01/28 22:20:00,64.2,-4.3
2023/01/28 22:30:00,64.3,-4.5
2023/01/28 22:40:00,64.3,-4.6
2023/01/28 22:50:00,64.3,-4.1
2023/01/28 23:00:00,65.2,-4.4
2023/01/28 23:10:00,65.1,-4.7
2023/01/28 23:20:00,64.7,-5.0
2023/01/28 23:30:00,64.8,-4.6
2023/01/28 23:40:00,65.2,-4.8
2023/01/28 23:50:00,65.3,-4.4
